Terminal Aerodrome Forecast
Issued by NWS

Home | Current Version | Previous Version | Text Only | Print | Product List | Glossary On
Versions: 1 2 3 4 5 6 7 8 9 10 11 12 13 14 15 16 17 18 19 20 21 22 23 24 25 26 27 28 29 30 31 32 33 34 35 36 37 38 39 40 41 42 43 44 45 46 47 48
000
FTUS43 KILX 101737
TAFBMI
TAF
KBMI 101737Z 1018/1118 29011KT P6SM FEW250
     FM110000 27007KT P6SM SKC
     FM111200 25006KT P6SM VCSH BKN040
     FM111600 25010KT P6SM SCT050=

USA.gov is the U.S. government's official web portal to all federal, state and local government web resources and services.